This is the latest recevied weather packets stored in our database for station/object IZ1UQG-2. If no packets are shown the sender has not sent any weather packets the latest 10 day(s).
| Time | Temp. | Humidity | Pressure | Rain* | Wind** | Luminosity | Snow |
|---|---|---|---|---|---|---|---|
| 1778000584 | 12.22° C | 89% | 1011.1 hPa | 0 mm | - | 33 W/m² | - |
| 1777999564 | 12.22° C | 89% | 1011.1 hPa | 0 mm | - | 33 W/m² | - |
| 1777998844 | 12.22° C | 89% | 1011.2 hPa | 0 mm | - | 40 W/m² | - |
| 1777998784 | 12.22° C | 89% | 1011.2 hPa | 0 mm | - | 42 W/m² | - |
| 1777997464 | 12.22° C | 87% | 1011.3 hPa | 0 mm | - | 49 W/m² | - |
| 1777997164 | 12.22° C | 87% | 1011.3 hPa | 0 mm | - | 46 W/m² | - |
| 1777996984 | 12.22° C | 87% | 1011.3 hPa | 0 mm | - | 47 W/m² | - |
| 1777996748 | 12.22° C | 88% | 1011.3 hPa | 0 mm | - | 47 W/m² | - |
| 1777995015 | 12.22° C | 88% | 1011.6 hPa | 0 mm | - | 44 W/m² | - |
| 1777994704 | 12.22° C | 88% | 1011.4 hPa | 0 mm | - | 49 W/m² | - |
| 1777994524 | 12.22° C | 88% | 1011.6 hPa | 0 mm | - | 54 W/m² | - |
| 1777994228 | 12.22° C | 88% | 1011.5 hPa | 0 mm | - | 60 W/m² | - |
| 1777993450 | 12.22° C | 88% | 1011.6 hPa | 0 mm | - | 56 W/m² | - |
| 1777993084 | 12.22° C | 89% | 1011.6 hPa | 0 mm | - | 53 W/m² | - |
| 1777993024 | 12.22° C | 89% | 1011.5 hPa | 0 mm | - | 53 W/m² | - |
| 1777992364 | 12.22° C | 89% | 1011.6 hPa | 0.25 mm | - | 69 W/m² | - |
| 1777992004 | 11.67° C | 89% | 1011.6 hPa | 0.25 mm | - | 72 W/m² | - |
| 1777991464 | 12.22° C | 89% | 1011.6 hPa | 0.25 mm | - | 63 W/m² | - |
| 1777991044 | 12.22° C | 89% | 1011.7 hPa | 0.25 mm | - | 69 W/m² | - |
| 1777990024 | 11.67° C | 90% | 1011.8 hPa | 0.51 mm | - | 63 W/m² | - |
| 1777989905 | 11.67° C | 89% | 1011.8 hPa | 0.51 mm | - | 67 W/m² | - |
| 1777989017 | 11.67° C | 89% | 1011.9 hPa | 0.25 mm | - | 67 W/m² | - |
| 1777988944 | 11.67° C | 89% | 1011.8 hPa | 0.25 mm | - | 65 W/m² | - |
| 1777988883 | 11.67° C | 89% | 1011.9 hPa | 0.51 mm | - | 65 W/m² | - |
| 1777988824 | 11.67° C | 90% | 1011.9 hPa | 0.51 mm | - | 69 W/m² | - |
* Rain latest hour (hover to see other rain measurements)
** Current wind speed in m/s (hover to see current wind gust speed)